Weather History for Rome, GA

Change the Weather History Date:

Monday, November 4, 2013

  Actual Average Record
Temperature  
Mean Temperature 49 °F 55 °F  
Max Temperature 65 °F 68 °F 79 °F (2001)
Min Temperature 32 °F 42 °F 26 °F (1999)
Degree Days  
Heating Degree Days 16 11  
Month to date heating degree days 43 41  
Since 1 July heating degree days 179 218  
Moisture  
Dew Point 37 °F    
Average Humidity 69    
Maximum Humidity 100    
Minimum Humidity 37    
Precipitation  
Precipitation 0.00 in 0.13 in 0.57 in (2004)
Month to date precipitation 0.18 0.52  
Year to date precipitation 43.21  
Snow  
Snow 0.00 in - - ()
Month to date snowfall 0.0  
Since 1 July snowfall 0.0  
Since 1 September snowfall 0.0  
Snow Depth 0.00 in    
Sea Level Pressure  
Sea Level Pressure 30.36 in    
Wind  
Wind Speed 4 mph (ESE)    
Max Wind Speed 17 mph    
Max Gust Speed 24 mph    
Visibility 9 miles    
Events      
T = Trace of Precipitation, MM = Missing Value Source: NWS Daily Summary

Daily Weather History Graph

Daily Weather History Graph

Search for Another Location

Airport:

Trip Planner

Search our weather history database for the weather conditions in past years. The results will help you decide how hot, cold, wet, or windy it might be!

Date:

Astronomy

Nov. 04, 2013 Rise Set
Actual Time 7:03 AM EST 5:44 PM EST
Civil Twilight 6:37 AM EST 6:10 PM EST
Nautical Twilight 6:07 AM EST 6:40 PM EST
Astronomical Twilight 5:38 AM EST 7:09 PM EST
Moon 8:10 AM EST (11/4) 6:51 PM EST (11/4)
Length of Visible Light 11h 32m
Length of Day
10h 40m
New Moon, 2% of the Moon is Illuminated
Nov 4
New Moon
Nov 10
First Quarter
Nov 17
Full
Nov 25
Last Quarter
Dec 2
New

Hourly Weather History & Observations

Time (EST) Temp. Windchill Dew Point Humidity Pressure Visibility Wind Dir Wind Speed Gust Speed Precip Events Conditions
12:53 AM 37.9 °F - 37.0 °F 97% 30.31 in 9.0 mi Calm Calm - N/A   Clear
1:53 AM 37.0 °F - 35.1 °F 93% 30.32 in 8.0 mi Calm Calm - N/A   Clear
2:53 AM 37.9 °F - 36.0 °F 93% 30.32 in 9.0 mi Calm Calm - N/A   Clear
3:53 AM 36.0 °F - 34.0 °F 93% 30.32 in 10.0 mi Calm Calm - N/A   Clear
4:53 AM 33.1 °F - 33.1 °F 100% 30.33 in 6.0 mi Calm Calm - N/A   Clear
5:53 AM 33.1 °F - 32.0 °F 96% 30.36 in 7.0 mi Calm Calm - N/A   Clear
6:53 AM 34.0 °F - 34.0 °F 100% 30.36 in 7.0 mi Calm Calm - N/A   Clear
7:53 AM 36.0 °F - 35.1 °F 97% 30.40 in 8.0 mi Calm Calm - N/A   Clear
8:53 AM 46.9 °F - 44.1 °F 90% 30.40 in 10.0 mi Calm Calm - N/A   Clear
9:53 AM 53.1 °F - 37.9 °F 57% 30.40 in 10.0 mi SE 5.8 mph - 0.00 in   Clear
10:53 AM 60.1 °F - 39.0 °F 46% 30.42 in 10.0 mi SE 9.2 mph - N/A   Clear
11:53 AM 62.1 °F - 39.0 °F 43% 30.41 in 10.0 mi ESE 10.4 mph - N/A   Clear
12:53 PM 63.0 °F - 37.9 °F 40% 30.38 in 10.0 mi ESE 8.1 mph 17.3 mph N/A   Clear
1:53 PM 64.0 °F - 37.9 °F 38% 30.36 in 10.0 mi SE 9.2 mph - N/A   Clear
2:53 PM 64.9 °F - 37.9 °F 37% 30.35 in 10.0 mi SE 8.1 mph - N/A   Clear
3:53 PM 64.0 °F - 37.9 °F 38% 30.35 in 10.0 mi ESE 10.4 mph - N/A   Clear
4:53 PM 62.1 °F - 37.9 °F 41% 30.34 in 10.0 mi ESE 9.2 mph - N/A   Clear
5:53 PM 57.0 °F - 37.0 °F 47% 30.34 in 10.0 mi East 4.6 mph - N/A   Clear
6:53 PM 55.0 °F - 37.0 °F 51% 30.36 in 10.0 mi Calm Calm - N/A   Clear
7:53 PM 50.0 °F - 37.0 °F 61% 30.38 in 10.0 mi ESE 4.6 mph - N/A   Clear
8:53 PM 48.9 °F - 37.9 °F 66% 30.39 in 10.0 mi Calm Calm - N/A   Clear
9:53 PM 46.0 °F 44.8 °F 39.0 °F 76% 30.40 in 10.0 mi WNW 3.5 mph - N/A   Clear
10:53 PM 45.0 °F - 37.9 °F 76% 30.40 in 10.0 mi Calm Calm - N/A   Clear
11:53 PM 50.0 °F - 37.0 °F 61% 30.40 in 10.0 mi ESE 4.6 mph - N/A   Clear